Volver al catálogo

DELTA 1 DEB

ActivoSSO
NORAD 21388·DEBRIS·🇺🇸 United States

Lanzado Jun 12, 1975 desde Vandenberg Space Force Base

Loading…

Próximos Pases (próximas 24 horas)

TLE

ActualizadoSource: Space-Track

Época: Sep 14, 2026, 09:55 UTC

1 21388U 75052DJ  26257.41329017  .00000058  00000-0  15253-3 0  9992
2 21388  99.5090 131.0679 0072574  38.5308 138.3017 13.50687633739379

Sigue DELTA 1 DEB en tiempo real con AllMySat

Download on the App Store